{"data":{"norad_id":52682,"epoch":"2026-09-20T04:00:03.000096Z","epoch_age_seconds":95224,"freshness":"FRESH","line1":"1 52682U 22053AC  26263.16670139  .00080159  00000+0  31978-2 0  9999","line2":"2 52682  53.1612 349.2120 0000499 104.2411 144.4978 15.24494686  5831","mean_motion":15.24494686,"eccentricity":4.99e-5,"inclination_deg":53.1612,"raan_deg":349.212,"arg_perigee_deg":104.2411,"mean_anomaly_deg":144.4978,"bstar":0.0031978,"rev_number":583,"period_min":94.457528335392,"perigee_km":491.96037863171,"apogee_km":492.64604856503,"semimajor_km":6870.4402135984,"source":"CELESTRAK","updated_at":"2026-09-20T09:00:40.105445Z"}}